Weather in Yarova

Ukraine / Donetsk Region     49°03′12″N   37°38′54″E
temp.,
°C
wind,
m/s
gust,
m/s
humid.,
%
clouds,
%
prec.,
mm/h
press.,
hPa
HPBL,
m
18 january, mon
mon1823:00−12ne4794100 0.8 1014287
02:00−12nne4694100 2.1 1014318
05:00−13nne4695100 1.1 1014274
08:00−13nne3495100 2.8 1015255
11:00−11nne238899 0.4 1016343
14:00−11n1187100 0.5 1015362
17:00−14n1196100 0.1 101620
20:00−14nnw1196100 0.1 101720
19 january, tue
tue1923:00−14sse119696 0.3 101821
02:00−14sw239698 0.3 101856
05:00−17sw3496100 0.1 101973
08:00−19sw239799 0.1 101963
11:00−14wsw239199 0.1 1020256
14:00−12wsw459299 0.1 1019377
17:00−16wsw349595 0.1 102172
20:00−17w339584 0.1 102238
20 january, wed
wed2023:00−17w229690 0.0 102224
02:00−19w229874 0.0 102421
05:00−20w229911 0.0 102520
08:00−20wsw229721 0.0 102623
11:00−14wsw238725 0.0 1027285
14:00−13wsw238761 0.0 1027381
17:00−18wsw229449 0.0 102820
20:00−19sw129525 0.0 102920
21 january, thu
thu2123:00−20ssw11960 0.0 103020
02:00−19ssw12950 0.0 103020
05:00−19s22930 0.0 103020
08:00−18sse22900 0.0 103125
11:00−10s36890 0.0 1030265
14:00−7s479219 0.0 1029312
17:00−8s5119588 0.0 1028264
20:00−4s5109394 0.1 1027312
22 january, fri
fri2223:00−3ssw51194100 0.0 1026336
02:000ssw41095100 0.0 1025399
05:00+1ssw51198100 0.0 1023378
08:00+2sw51298100 0.0 1024461
11:00+2ssw513100100 0.0 1023518
14:00+2ssw41110099 0.0 1023315
17:00+2ssw6109878 0.0 1022369
20:00+2s5139689 0.0 1022390